Terug naar catalogus

ARIANE 40 R/B

ActiefPO
NORAD 25979·ROCKET BODY·🇫🇷 France

Gelanceerd Dec 3, 1999 vanaf Guiana Space Centre

Loading…

Volgende Passages (komende 24 uur)

TLE

VersSource: Space-Track

Epoch: Sep 14, 2026, 06:19 UTC

1 25979U 99064C   26257.26386643  .00015245  00000-0  41283-3 0  9998
2 25979  98.1618 359.3101 0004292 138.3508 221.8062 15.37781178457605

Volg ARIANE 40 R/B in realtime met AllMySat

Download on the App Store